User: anonymous   Login
Location: Unspecified
(0.0000°N, 0.0000°E)
Time: 19:50:04
(UTC+00:00)
Language:

N. Korean satellite - Orbit

View from above orbital plane
View from above orbital plane
View from above satellite
View from above satellite

Ground track
Ground track

The orbit data is extracted from the following two-line orbital elements,

1 39026U 12072A   20099.52810382 +.00000794 +00000-0 +30714-4 0  9990
2 39026 097.2226 098.4073 0038830 130.9890 229.4720 15.28423506406566
Epoch (UTC): 08 April 2020 12:40:28
Eccentricity: 0.0038830
inclination: 97.2226°
perigee height: 454 km
apogee height: 507 km
right ascension of ascending node: 98.4073°
argument of perigee: 130.9890°
revolutions per day: 15.28423506
mean anomaly at epoch: 229.4720°
orbit number at epoch: 40656

The dashed part of the orbit path shows where the satellite is in the earth's shadow,  

DLR